Location: Cremona
(45.1170°N, 10.0330°E)
Time: 03:20:45
(UTC+01:00)

ISS - Pass Details

Date: 25 January 2019
Orbit: 403 x 411 km, 51.6° (Epoch: 17 February)

Event Time Altitude Azimuth Distance (km) Brightness Sun altitude
Rises 18:26:08 0° 232° (SW) 2,322 1.4 -12.2°
Reaches altitude 10° 18:28:13 10° 229° (SW) 1,467 0.1 -12.6°
Maximum altitude 18:31:29 66° 147° (SSE) 451 -3.7 -13.1°
Enters shadow 18:33:10 26° 71° (ENE) 854 -2.8 -13.4°
